sat.trackr.live / text

‹ back to catalog

S5

NORAD 44065 · 2019-009D

PAYLOAD ACTIVE UNKNOWN

§ Identity

Operator
Country
US
Launch date
2019-02-22
Launch site
AFETR
Launch vehicle
Mass (kg)
RCS (m²)

External: N2YO · Heavens-Above · Gunter

§ Orbital elements

Epoch: 2026-05-24T05:08:05.806176Z

Period
1,449.63 min
Inclination
6.5024°
Eccentricity
0.0002262
Mean motion
0.99336027 rev/d
Perigee alt
36,041.4 km
Apogee alt
36,060.6 km
Semi-major
42,429.1 km
B*
0.0000e+0
RAAN
71.1186°
Arg perigee
133.1083°
Mean anomaly
37.7935°
Rev number
2,620

§ Raw data

S51 44065U 19009D   26144.21395609 -.00000131  00000+0  00000+0 0  99942 44065   6.5024  71.1186 0002262 133.1083  37.7935  0.99336027 26206

JSON: /api/v1/satellites/44065 · /tle

For live sub-satellite position, see the globe view (requires WebGL).

§ Visibility from observer

Set your observer location to see the next 7 days of passes ≥ 10°. The values pass through the URL so the page stays shareable.

No JS? Fill the form by hand. The geolocation button needs JavaScript.